Year,Month,Day,Hour,Minute,Value (Times are PST for temperature in C)
2016,12,17,00,00,-7.60
2016,12,17,00,01,-7.60
2016,12,17,00,02,-7.70
2016,12,17,00,03,-7.70
2016,12,17,00,04,-7.70
2016,12,17,00,05,-7.70
2016,12,17,00,06,-7.70
2016,12,17,00,07,-7.70
2016,12,17,00,08,-7.70
2016,12,17,00,09,-7.80
2016,12,17,00,10,-7.80
2016,12,17,00,11,-7.80
2016,12,17,00,12,-7.80
2016,12,17,00,13,-7.80
2016,12,17,00,14,-7.80
2016,12,17,00,15,-7.80
2016,12,17,00,16,-7.80
2016,12,17,00,17,-7.80
2016,12,17,00,18,-7.80
2016,12,17,00,19,-7.80
2016,12,17,00,20,-7.80
2016,12,17,00,21,-7.80
2016,12,17,00,22,-7.80
2016,12,17,00,23,-7.80
2016,12,17,00,24,-7.80
2016,12,17,00,25,-7.80
2016,12,17,00,26,-7.80
2016,12,17,00,27,-7.80
2016,12,17,00,28,-7.80
2016,12,17,00,29,-7.80
2016,12,17,00,30,-7.80
2016,12,17,00,31,-7.80
2016,12,17,00,32,-7.80
2016,12,17,00,33,-7.80
2016,12,17,00,34,-7.80
2016,12,17,00,35,-7.80
2016,12,17,00,36,-7.80
2016,12,17,00,37,-7.80
2016,12,17,00,38,-7.80
2016,12,17,00,39,-7.80
2016,12,17,00,40,-7.80
2016,12,17,00,41,-7.80
2016,12,17,00,42,-7.80
2016,12,17,00,43,-7.90
2016,12,17,00,44,-7.90
2016,12,17,00,45,-7.90
2016,12,17,00,46,-7.90
2016,12,17,00,47,-7.90
2016,12,17,00,48,-7.90
2016,12,17,00,49,-7.90
2016,12,17,00,50,-7.90
2016,12,17,00,51,-7.90
2016,12,17,00,52,-7.90
2016,12,17,00,53,-8.00
2016,12,17,00,54,-8.00
2016,12,17,00,55,-8.00
2016,12,17,00,56,-8.00
2016,12,17,00,57,-8.00
2016,12,17,00,58,-8.10
2016,12,17,00,59,-8.10
2016,12,17,01,00,-8.10
2016,12,17,01,01,-8.10
2016,12,17,01,02,-8.10
2016,12,17,01,03,-8.10
2016,12,17,01,04,-8.20
2016,12,17,01,05,-8.20
2016,12,17,01,06,-8.20
2016,12,17,01,07,-8.20
2016,12,17,01,08,-8.20
2016,12,17,01,09,-8.20
2016,12,17,01,10,-8.20
2016,12,17,01,11,-8.20
2016,12,17,01,12,-8.30
2016,12,17,01,13,-8.30
2016,12,17,01,14,-8.30
2016,12,17,01,15,-8.30
2016,12,17,01,16,-8.30
2016,12,17,01,17,-8.30
2016,12,17,01,18,-8.30
2016,12,17,01,19,-8.30
2016,12,17,01,20,-8.30
2016,12,17,01,21,-8.30
2016,12,17,01,22,-8.30
2016,12,17,01,23,-8.30
2016,12,17,01,24,-8.30
2016,12,17,01,25,-8.30
2016,12,17,01,26,-8.30
2016,12,17,01,27,-8.30
2016,12,17,01,28,-8.30
2016,12,17,01,29,-8.30
2016,12,17,01,30,-8.30
2016,12,17,01,31,-8.30
2016,12,17,01,32,-8.30
2016,12,17,01,33,-8.30
2016,12,17,01,34,-8.30
2016,12,17,01,35,-8.30
2016,12,17,01,36,-8.30
2016,12,17,01,37,-8.30
2016,12,17,01,38,-8.30
2016,12,17,01,39,-8.30
2016,12,17,01,40,-8.30
2016,12,17,01,41,-8.20
2016,12,17,01,42,-8.20
2016,12,17,01,43,-8.20
2016,12,17,01,44,-8.20
2016,12,17,01,45,-8.20
2016,12,17,01,46,-8.20
2016,12,17,01,47,-8.20
2016,12,17,01,48,-8.20
2016,12,17,01,49,-8.10
2016,12,17,01,50,-8.10
2016,12,17,01,51,-8.10
2016,12,17,01,52,-8.10
2016,12,17,01,53,-8.10
2016,12,17,01,54,-8.10
2016,12,17,01,55,-8.10
2016,12,17,01,56,-8.10
2016,12,17,01,57,-8.10
2016,12,17,01,58,-8.00
2016,12,17,01,59,-8.00
2016,12,17,02,00,-8.00
2016,12,17,02,01,-8.00
2016,12,17,02,02,-8.00
2016,12,17,02,03,-8.00
2016,12,17,02,04,-8.00
2016,12,17,02,05,-8.00
2016,12,17,02,06,-8.00
2016,12,17,02,07,-8.00
2016,12,17,02,08,-8.00
2016,12,17,02,09,-8.00
2016,12,17,02,10,-8.00
2016,12,17,02,11,-8.00
2016,12,17,02,12,-8.00
2016,12,17,02,13,-8.00
2016,12,17,02,14,-8.00
2016,12,17,02,15,-8.00
2016,12,17,02,16,-7.90
2016,12,17,02,17,-8.00
2016,12,17,02,18,-8.00
2016,12,17,02,19,-7.90
2016,12,17,02,20,-8.00
2016,12,17,02,21,-7.90
2016,12,17,02,22,-7.90
2016,12,17,02,23,-8.00
2016,12,17,02,24,-8.00
2016,12,17,02,25,-8.00
2016,12,17,02,26,-8.00
2016,12,17,02,27,-8.00
2016,12,17,02,28,-8.00
2016,12,17,02,29,-8.00
2016,12,17,02,30,-8.00
2016,12,17,02,31,-8.00
2016,12,17,02,32,-8.00
2016,12,17,02,33,-8.00
2016,12,17,02,34,-8.00
2016,12,17,02,35,-8.10
2016,12,17,02,36,-8.10
2016,12,17,02,37,-8.10
2016,12,17,02,38,-8.10
2016,12,17,02,39,-8.10
2016,12,17,02,40,-8.10
2016,12,17,02,41,-8.10
2016,12,17,02,42,-8.10
2016,12,17,02,43,-8.10
2016,12,17,02,44,-8.10
2016,12,17,02,45,-8.20
2016,12,17,02,46,-8.20
2016,12,17,02,47,-8.20
2016,12,17,02,48,-8.20
2016,12,17,02,49,-8.20
2016,12,17,02,50,-8.20
2016,12,17,02,51,-8.20
2016,12,17,02,52,-8.20
2016,12,17,02,53,-8.20
2016,12,17,02,54,-8.20
2016,12,17,02,55,-8.20
2016,12,17,02,56,-8.20
2016,12,17,02,57,-8.20
2016,12,17,02,58,-8.20
2016,12,17,02,59,-8.20
2016,12,17,03,00,-8.20
2016,12,17,03,01,-8.20
2016,12,17,03,02,-8.30
2016,12,17,03,03,-8.30
2016,12,17,03,04,-8.30
2016,12,17,03,05,-8.30
2016,12,17,03,06,-8.30
2016,12,17,03,07,-8.30
2016,12,17,03,08,-8.30
2016,12,17,03,09,-8.30
2016,12,17,03,10,-8.30
2016,12,17,03,11,-8.40
2016,12,17,03,12,-8.40
2016,12,17,03,13,-8.40
2016,12,17,03,14,-8.40
2016,12,17,03,15,-8.40
2016,12,17,03,16,-8.40
2016,12,17,03,17,-8.40
2016,12,17,03,18,-8.40
2016,12,17,03,19,-8.40
2016,12,17,03,20,-8.40
2016,12,17,03,21,-8.40
2016,12,17,03,22,-8.40
2016,12,17,03,23,-8.40
2016,12,17,03,24,-8.40
2016,12,17,03,25,-8.40
2016,12,17,03,26,-8.30
2016,12,17,03,27,-8.30
2016,12,17,03,28,-8.30
2016,12,17,03,29,-8.30
2016,12,17,03,30,-8.30
2016,12,17,03,31,-8.30
2016,12,17,03,32,-8.30
2016,12,17,03,33,-8.20
2016,12,17,03,34,-8.20
2016,12,17,03,35,-8.20
2016,12,17,03,36,-8.20
2016,12,17,03,37,-8.20
2016,12,17,03,38,-8.20
2016,12,17,03,39,-8.20
2016,12,17,03,40,-8.20
2016,12,17,03,41,-8.10
2016,12,17,03,42,-8.10
2016,12,17,03,43,-8.10
2016,12,17,03,44,-8.10
2016,12,17,03,45,-8.10
2016,12,17,03,46,-8.10
2016,12,17,03,47,-8.10
2016,12,17,03,48,-8.10
2016,12,17,03,49,-8.10
2016,12,17,03,50,-8.10
2016,12,17,03,51,-8.10
2016,12,17,03,52,-8.10
2016,12,17,03,53,-8.10
2016,12,17,03,54,-8.10
2016,12,17,03,55,-8.20
2016,12,17,03,56,-8.20
2016,12,17,03,57,-8.20
2016,12,17,03,58,-8.20
2016,12,17,03,59,-8.20
2016,12,17,04,00,-8.20
2016,12,17,04,01,-8.20
2016,12,17,04,02,-8.20
2016,12,17,04,03,-8.30
2016,12,17,04,04,-8.30
2016,12,17,04,05,-8.30
2016,12,17,04,06,-8.30
2016,12,17,04,07,-8.30
2016,12,17,04,08,-8.30
2016,12,17,04,09,-8.40
2016,12,17,04,10,-8.40
2016,12,17,04,11,-8.40
2016,12,17,04,12,-8.40
2016,12,17,04,13,-8.40
2016,12,17,04,14,-8.40
2016,12,17,04,15,-8.40
2016,12,17,04,16,-8.50
2016,12,17,04,17,-8.50
2016,12,17,04,18,-8.50
2016,12,17,04,19,-8.50
2016,12,17,04,20,-8.50
2016,12,17,04,21,-8.60
2016,12,17,04,22,-8.60
2016,12,17,04,23,-8.60
2016,12,17,04,24,-8.60
2016,12,17,04,25,-8.60
2016,12,17,04,26,-8.60
2016,12,17,04,27,-8.70
2016,12,17,04,28,-8.70
2016,12,17,04,29,-8.70
2016,12,17,04,30,-8.70
2016,12,17,04,31,-8.70
2016,12,17,04,32,-8.70
2016,12,17,04,33,-8.80
2016,12,17,04,34,-8.80
2016,12,17,04,35,-8.80
2016,12,17,04,36,-8.80
2016,12,17,04,37,-8.80
2016,12,17,04,38,-8.80
2016,12,17,04,39,-8.80
2016,12,17,04,40,-8.80
2016,12,17,04,41,-8.80
2016,12,17,04,42,-8.80
2016,12,17,04,43,-8.80
2016,12,17,04,44,-8.80
2016,12,17,04,45,-8.80
2016,12,17,04,46,-8.80
2016,12,17,04,47,-8.80
2016,12,17,04,48,-8.80
2016,12,17,04,49,-8.80
2016,12,17,04,50,-8.80
2016,12,17,04,51,-8.80
2016,12,17,04,52,-8.80
2016,12,17,04,53,-8.80
2016,12,17,04,54,-8.80
2016,12,17,04,55,-8.80
2016,12,17,04,56,-8.80
2016,12,17,04,57,-8.80
2016,12,17,04,58,-8.80
2016,12,17,04,59,-8.80
2016,12,17,05,00,-8.80
2016,12,17,05,01,-8.70
2016,12,17,05,02,-8.70
2016,12,17,05,03,-8.70
2016,12,17,05,04,-8.70
2016,12,17,05,05,-8.70
2016,12,17,05,06,-8.70
2016,12,17,05,07,-8.70
2016,12,17,05,08,-8.70
2016,12,17,05,09,-8.70
2016,12,17,05,10,-8.60
2016,12,17,05,11,-8.60
2016,12,17,05,12,-8.60
2016,12,17,05,13,-8.60
2016,12,17,05,14,-8.50
2016,12,17,05,15,-8.50
2016,12,17,05,16,-8.40
2016,12,17,05,17,-8.40
2016,12,17,05,18,-8.40
2016,12,17,05,19,-8.30
2016,12,17,05,20,-8.30
2016,12,17,05,21,-8.30
2016,12,17,05,22,-8.30
2016,12,17,05,23,-8.20
2016,12,17,05,24,-8.20
2016,12,17,05,25,-8.20
2016,12,17,05,26,-8.20
2016,12,17,05,27,-8.20
2016,12,17,05,28,-8.10
2016,12,17,05,29,-8.10
2016,12,17,05,30,-8.10
2016,12,17,05,31,-8.10
2016,12,17,05,32,-8.10
2016,12,17,05,33,-8.10
2016,12,17,05,34,-8.00
2016,12,17,05,35,-8.00
2016,12,17,05,36,-8.00
2016,12,17,05,37,-8.00
2016,12,17,05,38,-7.90
2016,12,17,05,39,-7.90
2016,12,17,05,40,-7.90
2016,12,17,05,41,-7.90
2016,12,17,05,42,-7.90
2016,12,17,05,43,-7.80
2016,12,17,05,44,-7.80
2016,12,17,05,45,-7.80
2016,12,17,05,46,-7.80
2016,12,17,05,47,-7.80
2016,12,17,05,48,-7.80
2016,12,17,05,49,-7.70
2016,12,17,05,50,-7.70
2016,12,17,05,51,-7.70
2016,12,17,05,52,-7.70
2016,12,17,05,53,-7.70
2016,12,17,05,54,-7.60
2016,12,17,05,55,-7.60
2016,12,17,05,56,-7.60
2016,12,17,05,57,-7.60
2016,12,17,05,58,-7.60
2016,12,17,05,59,-7.60
2016,12,17,06,00,-7.60
2016,12,17,06,01,-7.50
2016,12,17,06,02,-7.50
2016,12,17,06,03,-7.50
2016,12,17,06,04,-7.50
2016,12,17,06,05,-7.40
2016,12,17,06,06,-7.40
2016,12,17,06,07,-7.40
2016,12,17,06,08,-7.40
2016,12,17,06,09,-7.40
2016,12,17,06,10,-7.40
2016,12,17,06,11,-7.40
2016,12,17,06,12,-7.40
2016,12,17,06,13,-7.40
2016,12,17,06,14,-7.30
2016,12,17,06,15,-7.30
2016,12,17,06,16,-7.30
2016,12,17,06,17,-7.30
2016,12,17,06,18,-7.30
2016,12,17,06,19,-7.30
2016,12,17,06,20,-7.30
2016,12,17,06,21,-7.30
2016,12,17,06,22,-7.30
2016,12,17,06,23,-7.30
2016,12,17,06,24,-7.30
2016,12,17,06,25,-7.30
2016,12,17,06,26,-7.30
2016,12,17,06,27,-7.20
2016,12,17,06,28,-7.30
2016,12,17,06,29,-7.20
2016,12,17,06,30,-7.20
2016,12,17,06,31,-7.20
2016,12,17,06,32,-7.20
2016,12,17,06,33,-7.20
2016,12,17,06,34,-7.20
2016,12,17,06,35,-7.20
2016,12,17,06,36,-7.20
2016,12,17,06,37,-7.20
2016,12,17,06,38,-7.20
2016,12,17,06,39,-7.20
2016,12,17,06,40,-7.20
2016,12,17,06,41,-7.20
2016,12,17,06,42,-7.20
2016,12,17,06,43,-7.20
2016,12,17,06,44,-7.10
2016,12,17,06,45,-7.10
2016,12,17,06,46,-7.10
2016,12,17,06,47,-7.10
2016,12,17,06,48,-7.10
2016,12,17,06,49,-7.10
2016,12,17,06,50,-7.10
2016,12,17,06,51,-7.10
2016,12,17,06,52,-7.00
2016,12,17,06,53,-7.00
2016,12,17,06,54,-7.00
2016,12,17,06,55,-7.00
2016,12,17,06,56,-7.00
2016,12,17,06,57,-7.00
2016,12,17,06,58,-7.00
2016,12,17,06,59,-7.00
2016,12,17,07,00,-7.00
2016,12,17,07,01,-7.00
2016,12,17,07,02,-7.00
2016,12,17,07,03,-7.00
2016,12,17,07,04,-7.00
2016,12,17,07,05,-6.90
2016,12,17,07,06,-6.90
2016,12,17,07,07,-6.90
2016,12,17,07,08,-6.90
2016,12,17,07,09,-6.90
2016,12,17,07,10,-6.90
2016,12,17,07,11,-6.90
2016,12,17,07,12,-6.90
2016,12,17,07,13,-6.90
2016,12,17,07,14,-6.90
2016,12,17,07,15,-6.90
2016,12,17,07,16,-6.80
2016,12,17,07,17,-6.80
2016,12,17,07,18,-6.80
2016,12,17,07,19,-6.80
2016,12,17,07,20,-6.80
2016,12,17,07,21,-6.80
2016,12,17,07,22,-6.80
2016,12,17,07,23,-6.80
2016,12,17,07,24,-6.80
2016,12,17,07,25,-6.80
2016,12,17,07,26,-6.80
2016,12,17,07,27,-6.80
2016,12,17,07,28,-6.80
2016,12,17,07,29,-6.80
2016,12,17,07,30,-6.80
2016,12,17,07,31,-6.80
2016,12,17,07,32,-6.80
2016,12,17,07,33,-6.80
2016,12,17,07,34,-6.80
2016,12,17,07,35,-6.70
2016,12,17,07,36,-6.70
2016,12,17,07,37,-6.70
2016,12,17,07,38,-6.70
2016,12,17,07,39,-6.70
2016,12,17,07,40,-6.70
2016,12,17,07,41,-6.70
2016,12,17,07,42,-6.70
2016,12,17,07,43,-6.70
2016,12,17,07,44,-6.70
2016,12,17,07,45,-6.70
2016,12,17,07,46,-6.70
2016,12,17,07,47,-6.70
2016,12,17,07,48,-6.70
2016,12,17,07,49,-6.70
2016,12,17,07,50,-6.70
2016,12,17,07,51,-6.70
2016,12,17,07,52,-6.70
2016,12,17,07,53,-6.70
2016,12,17,07,54,-6.70
2016,12,17,07,55,-6.70
2016,12,17,07,56,-6.70
2016,12,17,07,57,-6.70
2016,12,17,07,58,-6.70
2016,12,17,07,59,-6.70
2016,12,17,08,00,-6.70
2016,12,17,08,01,-6.70
2016,12,17,08,02,-6.70
2016,12,17,08,03,-6.70
2016,12,17,08,04,-6.60
2016,12,17,08,05,-6.60
2016,12,17,08,06,-6.60
2016,12,17,08,07,-6.60
2016,12,17,08,08,-6.60
2016,12,17,08,09,-6.60
2016,12,17,08,10,-6.60
2016,12,17,08,11,-6.60
2016,12,17,08,12,-6.60
2016,12,17,08,13,-6.60
2016,12,17,08,14,-6.60
2016,12,17,08,15,-6.60
2016,12,17,08,16,-6.60
2016,12,17,08,17,-6.60
2016,12,17,08,18,-6.60
2016,12,17,08,19,-6.60
2016,12,17,08,20,-6.50
2016,12,17,08,21,-6.50
2016,12,17,08,22,-6.50
2016,12,17,08,23,-6.50
2016,12,17,08,24,-6.50
2016,12,17,08,25,-6.50
2016,12,17,08,26,-6.50
2016,12,17,08,27,-6.40
2016,12,17,08,28,-6.40
2016,12,17,08,29,-6.40
2016,12,17,08,30,-6.40
2016,12,17,08,31,-6.40
2016,12,17,08,32,-6.40
2016,12,17,08,33,-6.40
2016,12,17,08,34,-6.40
2016,12,17,08,35,-6.40
2016,12,17,08,36,-6.40
2016,12,17,08,37,-6.30
2016,12,17,08,38,-6.30
2016,12,17,08,39,-6.30
2016,12,17,08,40,-6.30
2016,12,17,08,41,-6.30
2016,12,17,08,42,-6.30
2016,12,17,08,43,-6.30
2016,12,17,08,44,-6.30
2016,12,17,08,45,-6.30
2016,12,17,08,46,-6.30
2016,12,17,08,47,-6.20
2016,12,17,08,48,-6.20
2016,12,17,08,49,-6.20
2016,12,17,08,50,-6.20
2016,12,17,08,51,-6.20
2016,12,17,08,52,-6.20
2016,12,17,08,53,-6.20
2016,12,17,08,54,-6.20
2016,12,17,08,55,-6.20
2016,12,17,08,56,-6.20
2016,12,17,08,57,-6.20
2016,12,17,08,58,-6.10
2016,12,17,08,59,-6.10
2016,12,17,09,00,-6.10
2016,12,17,09,01,-6.10
2016,12,17,09,02,-6.10
2016,12,17,09,03,-6.10
2016,12,17,09,04,-6.10
2016,12,17,09,05,-6.10
2016,12,17,09,06,-6.00
2016,12,17,09,07,-6.00
2016,12,17,09,08,-6.00
2016,12,17,09,09,-6.00
2016,12,17,09,10,-6.00
2016,12,17,09,11,-5.90
2016,12,17,09,12,-5.90
2016,12,17,09,13,-5.90
2016,12,17,09,14,-5.90
2016,12,17,09,15,-5.90
2016,12,17,09,16,-5.90
2016,12,17,09,17,-5.90
2016,12,17,09,18,-5.80
2016,12,17,09,19,-5.80
2016,12,17,09,20,-5.80
2016,12,17,09,21,-5.80
2016,12,17,09,22,-5.80
2016,12,17,09,23,-5.80
2016,12,17,09,24,-5.70
2016,12,17,09,25,-5.70
2016,12,17,09,26,-5.70
2016,12,17,09,27,-5.70
2016,12,17,09,28,-5.70
2016,12,17,09,29,-5.60
2016,12,17,09,30,-5.60
2016,12,17,09,31,-5.60
2016,12,17,09,32,-5.60
2016,12,17,09,33,-5.50
2016,12,17,09,34,-5.50
2016,12,17,09,35,-5.50
2016,12,17,09,36,-5.40
2016,12,17,09,37,-5.40
2016,12,17,09,38,-5.40
2016,12,17,09,39,-5.40
2016,12,17,09,40,-5.30
2016,12,17,09,41,-5.30
2016,12,17,09,42,-5.30
2016,12,17,09,43,-5.30
2016,12,17,09,44,-5.30
2016,12,17,09,45,-5.20
2016,12,17,09,46,-5.20
2016,12,17,09,47,-5.20
2016,12,17,09,48,-5.10
2016,12,17,09,49,-5.10
2016,12,17,09,50,-5.10
2016,12,17,09,51,-5.10
2016,12,17,09,52,-5.00
2016,12,17,09,53,-5.00
2016,12,17,09,54,-4.90
2016,12,17,09,55,-4.90
2016,12,17,09,56,-4.90
2016,12,17,09,57,-4.90
2016,12,17,09,58,-4.80
2016,12,17,09,59,-4.80
2016,12,17,10,00,-4.80
2016,12,17,10,01,-4.80
2016,12,17,10,02,-4.70
2016,12,17,10,03,-4.70
2016,12,17,10,04,-4.70
2016,12,17,10,05,-4.70
2016,12,17,10,06,-4.60
2016,12,17,10,07,-4.60
2016,12,17,10,08,-4.60
2016,12,17,10,09,-4.60
2016,12,17,10,10,-4.50
2016,12,17,10,11,-4.50
2016,12,17,10,12,-4.50
2016,12,17,10,13,-4.40
2016,12,17,10,14,-4.40
2016,12,17,10,15,-4.40
2016,12,17,10,16,-4.30
2016,12,17,10,17,-4.30
2016,12,17,10,18,-4.30
2016,12,17,10,19,-4.30
2016,12,17,10,20,-4.20
2016,12,17,10,21,-4.20
2016,12,17,10,22,-4.20
2016,12,17,10,23,-4.20
2016,12,17,10,24,-4.10
2016,12,17,10,25,-4.10
2016,12,17,10,26,-4.10
2016,12,17,10,27,-4.00
2016,12,17,10,28,-4.00
2016,12,17,10,29,-3.90
2016,12,17,10,30,-3.90
2016,12,17,10,31,-3.90
2016,12,17,10,32,-3.80
2016,12,17,10,33,-3.80
2016,12,17,10,34,-3.80
2016,12,17,10,35,-3.70
2016,12,17,10,36,-3.70
2016,12,17,10,37,-3.70
2016,12,17,10,38,-3.70
2016,12,17,10,39,-3.60
2016,12,17,10,40,-3.60
2016,12,17,10,41,-3.60
2016,12,17,10,42,-3.50
2016,12,17,10,43,-3.50
2016,12,17,10,44,-3.40
2016,12,17,10,45,-3.40
2016,12,17,10,46,-3.30
2016,12,17,10,47,-3.30
2016,12,17,10,48,-3.30
2016,12,17,10,49,-3.30
2016,12,17,10,50,-3.20
2016,12,17,10,51,-3.20
2016,12,17,10,52,-3.10
2016,12,17,10,53,-3.00
2016,12,17,10,54,-3.00
2016,12,17,10,55,-2.90
2016,12,17,10,56,-2.80
2016,12,17,10,57,-2.70
2016,12,17,10,58,-2.70
2016,12,17,10,59,-2.60
2016,12,17,11,00,-2.50
2016,12,17,11,01,-2.40
2016,12,17,11,02,-2.40
2016,12,17,11,03,-2.30
2016,12,17,11,04,-2.30
2016,12,17,11,05,-2.20
2016,12,17,11,06,-2.10
2016,12,17,11,07,-2.10
2016,12,17,11,08,-2.10
2016,12,17,11,09,-2.10
2016,12,17,11,10,-2.10
2016,12,17,11,11,-2.10
2016,12,17,11,12,-2.10
2016,12,17,11,13,-2.10
2016,12,17,11,14,-2.10
2016,12,17,11,15,-2.10
2016,12,17,11,16,-2.10
2016,12,17,11,17,-2.10
2016,12,17,11,18,-2.10
2016,12,17,11,19,-2.10
2016,12,17,11,20,-2.10
2016,12,17,11,21,-2.10
2016,12,17,11,22,-2.10
2016,12,17,11,23,-2.10
2016,12,17,11,24,-2.10
2016,12,17,11,25,-2.10
2016,12,17,11,26,-2.10
2016,12,17,11,27,-2.10
2016,12,17,11,28,-2.10
2016,12,17,11,29,-2.10
2016,12,17,11,30,-2.20
2016,12,17,11,31,-2.20
2016,12,17,11,32,-2.20
2016,12,17,11,33,-2.20
2016,12,17,11,34,-2.20
2016,12,17,11,35,-2.20
2016,12,17,11,36,-2.20
2016,12,17,11,37,-2.20
2016,12,17,11,38,-2.20
2016,12,17,11,39,-2.20
2016,12,17,11,40,-2.20
2016,12,17,11,41,-2.20
2016,12,17,11,42,-2.20
2016,12,17,11,43,-2.10
2016,12,17,11,44,-2.10
2016,12,17,11,45,-2.10
2016,12,17,11,46,-2.10
2016,12,17,11,47,-2.10
2016,12,17,11,48,-2.10
2016,12,17,11,49,-2.10
2016,12,17,11,50,-2.20
2016,12,17,11,51,-2.20
2016,12,17,11,52,-2.20
2016,12,17,11,53,-2.10
2016,12,17,11,54,-2.10
2016,12,17,11,55,-2.00
2016,12,17,11,56,-2.00
2016,12,17,11,57,-1.90
2016,12,17,11,58,-1.90
2016,12,17,11,59,-1.80
2016,12,17,12,00,-1.80
2016,12,17,12,01,-1.80
2016,12,17,12,02,-1.70
2016,12,17,12,03,-1.70
2016,12,17,12,04,-1.70
2016,12,17,12,05,-1.70
2016,12,17,12,06,-1.70
2016,12,17,12,07,-1.70
2016,12,17,12,08,-1.70
2016,12,17,12,09,-1.70
2016,12,17,12,10,-1.80
2016,12,17,12,11,-1.80
2016,12,17,12,12,-1.80
2016,12,17,12,13,-1.90
2016,12,17,12,14,-1.90
2016,12,17,12,15,-1.90
2016,12,17,12,16,-1.90
2016,12,17,12,17,-1.90
2016,12,17,12,18,-1.90
2016,12,17,12,19,-1.90
2016,12,17,12,20,-2.00
2016,12,17,12,21,-2.00
2016,12,17,12,22,-2.00
2016,12,17,12,23,-2.00
2016,12,17,12,24,-2.00
2016,12,17,12,25,-2.00
2016,12,17,12,26,-2.00
2016,12,17,12,27,-2.00
2016,12,17,12,28,-1.90
2016,12,17,12,29,-1.90
2016,12,17,12,30,-1.90
2016,12,17,12,31,-1.90
2016,12,17,12,32,-1.90
2016,12,17,12,33,-2.00
2016,12,17,12,34,-2.00
2016,12,17,12,35,-2.00
2016,12,17,12,36,-1.90
2016,12,17,12,37,-1.90
2016,12,17,12,38,-1.90
2016,12,17,12,39,-1.90
2016,12,17,12,40,-1.90
2016,12,17,12,41,-1.90
2016,12,17,12,42,-1.90
2016,12,17,12,43,-1.90
2016,12,17,12,44,-1.90
2016,12,17,12,45,-1.90
2016,12,17,12,46,-1.90
2016,12,17,12,47,-1.90
2016,12,17,12,48,-1.90
2016,12,17,12,49,-1.90
2016,12,17,12,50,-1.90
2016,12,17,12,51,-1.90
2016,12,17,12,52,-1.90
2016,12,17,12,53,-1.90
2016,12,17,12,54,-1.90
2016,12,17,12,55,-1.90
2016,12,17,12,56,-1.90
2016,12,17,12,57,-1.90
2016,12,17,12,58,-1.90
2016,12,17,12,59,-1.80
2016,12,17,13,00,-1.80
2016,12,17,13,01,-1.80
2016,12,17,13,02,-1.80
2016,12,17,13,03,-1.80
2016,12,17,13,04,-1.80
2016,12,17,13,05,-1.80
2016,12,17,13,06,-1.80
2016,12,17,13,07,-1.70
2016,12,17,13,08,-1.70
2016,12,17,13,09,-1.70
2016,12,17,13,10,-1.70
2016,12,17,13,11,-1.70
2016,12,17,13,12,-1.70
2016,12,17,13,13,-1.70
2016,12,17,13,14,-1.70
2016,12,17,13,15,-1.70
2016,12,17,13,16,-1.70
2016,12,17,13,17,-1.70
2016,12,17,13,18,-1.70
2016,12,17,13,19,-1.70
2016,12,17,13,20,-1.70
2016,12,17,13,21,-1.70
2016,12,17,13,22,-1.70
2016,12,17,13,23,-1.70
2016,12,17,13,24,-1.70
2016,12,17,13,25,-1.70
2016,12,17,13,26,-1.70
2016,12,17,13,27,-1.70
2016,12,17,13,28,-1.60
2016,12,17,13,29,-1.60
2016,12,17,13,30,-1.60
2016,12,17,13,31,-1.60
2016,12,17,13,32,-1.60
2016,12,17,13,33,-1.60
2016,12,17,13,34,-1.60
2016,12,17,13,35,-1.60
2016,12,17,13,36,-1.60
2016,12,17,13,37,-1.70
2016,12,17,13,38,-1.70
2016,12,17,13,39,-1.70
2016,12,17,13,40,-1.70
2016,12,17,13,41,-1.70
2016,12,17,13,42,-1.80
2016,12,17,13,43,-1.80
2016,12,17,13,44,-1.80
2016,12,17,13,45,-1.90
2016,12,17,13,46,-1.90
2016,12,17,13,47,-1.90
2016,12,17,13,48,-1.90
2016,12,17,13,49,-2.00
2016,12,17,13,50,-2.00
2016,12,17,13,51,-2.00
2016,12,17,13,52,-2.10
2016,12,17,13,53,-2.10
2016,12,17,13,54,-2.10
2016,12,17,13,55,-2.10
2016,12,17,13,56,-2.10
2016,12,17,13,57,-2.00
2016,12,17,13,58,-2.00
2016,12,17,13,59,-2.10
2016,12,17,14,00,-2.00
2016,12,17,14,01,-2.10
2016,12,17,14,02,-2.10
2016,12,17,14,03,-2.10
2016,12,17,14,04,-2.10
2016,12,17,14,05,-2.10
2016,12,17,14,06,-2.10
2016,12,17,14,07,-2.10
2016,12,17,14,08,-2.10
2016,12,17,14,09,-2.10
2016,12,17,14,10,-2.10
2016,12,17,14,11,-2.10
2016,12,17,14,12,-2.10
2016,12,17,14,13,-2.10
2016,12,17,14,14,-2.10
2016,12,17,14,15,-2.10
2016,12,17,14,16,-2.10
2016,12,17,14,17,-2.10
2016,12,17,14,18,-2.10
2016,12,17,14,19,-2.10
2016,12,17,14,20,-2.10
2016,12,17,14,21,-2.10
2016,12,17,14,22,-2.10
2016,12,17,14,23,-2.10
2016,12,17,14,24,-2.10
2016,12,17,14,25,-2.10
2016,12,17,14,26,-2.20
2016,12,17,14,27,-2.20
2016,12,17,14,28,-2.20
2016,12,17,14,29,-2.20
2016,12,17,14,30,-2.20
2016,12,17,14,31,-2.20
2016,12,17,14,32,-2.20
2016,12,17,14,33,-2.20
2016,12,17,14,34,-2.20
2016,12,17,14,35,-2.20
2016,12,17,14,36,-2.10
2016,12,17,14,37,-2.10
2016,12,17,14,38,-2.20
2016,12,17,14,39,-2.20
2016,12,17,14,40,-2.20
2016,12,17,14,41,-2.20
2016,12,17,14,42,-2.20
2016,12,17,14,43,-2.20
2016,12,17,14,44,-2.20
2016,12,17,14,45,-2.20
2016,12,17,14,46,-2.20
2016,12,17,14,47,-2.20
2016,12,17,14,48,-2.20
2016,12,17,14,49,-2.20
2016,12,17,14,50,-2.20
2016,12,17,14,51,-2.20
2016,12,17,14,52,-2.20
2016,12,17,14,53,-2.10
2016,12,17,14,54,-2.10
2016,12,17,14,55,-2.10
2016,12,17,14,56,-2.00
2016,12,17,14,57,-2.00
2016,12,17,14,58,-1.90
2016,12,17,14,59,-1.90
2016,12,17,15,00,-1.80
2016,12,17,15,01,-1.80
2016,12,17,15,02,-1.70
2016,12,17,15,03,-1.70
2016,12,17,15,04,-1.60
2016,12,17,15,05,-1.60
2016,12,17,15,06,-1.50
2016,12,17,15,07,-1.50
2016,12,17,15,08,-1.50
2016,12,17,15,09,-1.40
2016,12,17,15,10,-1.40
2016,12,17,15,11,-1.40
2016,12,17,15,12,-1.30
2016,12,17,15,13,-1.30
2016,12,17,15,14,-1.30
2016,12,17,15,15,-1.30
2016,12,17,15,16,-1.30
2016,12,17,15,17,-1.30
2016,12,17,15,18,-1.30
2016,12,17,15,19,-1.30
2016,12,17,15,20,-1.30
2016,12,17,15,21,-1.30
2016,12,17,15,22,-1.30
2016,12,17,15,23,-1.30
2016,12,17,15,24,-1.30
2016,12,17,15,25,-1.40
2016,12,17,15,26,-1.40
2016,12,17,15,27,-1.40
2016,12,17,15,28,-1.40
2016,12,17,15,29,-1.40
2016,12,17,15,30,-1.40
2016,12,17,15,31,-1.50
2016,12,17,15,32,-1.50
2016,12,17,15,33,-1.60
2016,12,17,15,34,-1.60
2016,12,17,15,35,-1.60
2016,12,17,15,36,-1.60
2016,12,17,15,37,-1.70
2016,12,17,15,38,-1.70
2016,12,17,15,39,-1.70
2016,12,17,15,40,-1.80
2016,12,17,15,41,-1.80
2016,12,17,15,42,-1.80
2016,12,17,15,43,-1.90
2016,12,17,15,44,-1.90
2016,12,17,15,45,-1.90
2016,12,17,15,46,-1.90
2016,12,17,15,47,-2.00
2016,12,17,15,48,-2.00
2016,12,17,15,49,-2.10
2016,12,17,15,50,-2.10
2016,12,17,15,51,-2.10
2016,12,17,15,52,-2.10
2016,12,17,15,53,-2.20
2016,12,17,15,54,-2.20
2016,12,17,15,55,-2.20
2016,12,17,15,56,-2.20
2016,12,17,15,57,-2.20
2016,12,17,15,58,-2.30
2016,12,17,15,59,-2.30
2016,12,17,16,00,-2.30
2016,12,17,16,01,-2.30
2016,12,17,16,02,-2.40
2016,12,17,16,03,-2.40
2016,12,17,16,04,-2.40
2016,12,17,16,05,-2.40
2016,12,17,16,06,-2.50
2016,12,17,16,07,-2.50
2016,12,17,16,08,-2.50
2016,12,17,16,09,-2.50
2016,12,17,16,10,-2.60
2016,12,17,16,11,-2.60
2016,12,17,16,12,-2.60
2016,12,17,16,13,-2.60
2016,12,17,16,14,-2.60
2016,12,17,16,15,-2.70
2016,12,17,16,16,-2.70
2016,12,17,16,17,-2.70
2016,12,17,16,18,-2.70
2016,12,17,16,19,-2.70
2016,12,17,16,20,-2.80
2016,12,17,16,21,-2.80
2016,12,17,16,22,-2.80
2016,12,17,16,23,-2.80
2016,12,17,16,24,-2.90
2016,12,17,16,25,-2.90
2016,12,17,16,26,-2.90
2016,12,17,16,27,-3.00
2016,12,17,16,28,-3.00
2016,12,17,16,29,-3.00
2016,12,17,16,30,-3.10
2016,12,17,16,31,-3.10
2016,12,17,16,32,-3.20
2016,12,17,16,33,-3.20
2016,12,17,16,34,-3.20
2016,12,17,16,35,-3.30
2016,12,17,16,36,-3.30
2016,12,17,16,37,-3.40
2016,12,17,16,38,-3.40
2016,12,17,16,39,-3.40
2016,12,17,16,40,-3.50
2016,12,17,16,41,-3.50
2016,12,17,16,42,-3.60
2016,12,17,16,43,-3.60
2016,12,17,16,44,-3.60
2016,12,17,16,45,-3.60
2016,12,17,16,46,-3.60
2016,12,17,16,47,-3.70
2016,12,17,16,48,-3.70
2016,12,17,16,49,-3.70
2016,12,17,16,50,-3.70
2016,12,17,16,51,-3.70
2016,12,17,16,52,-3.70
2016,12,17,16,53,-3.80
2016,12,17,16,54,-3.80
2016,12,17,16,55,-3.80
2016,12,17,16,56,-3.80
2016,12,17,16,57,-3.80
2016,12,17,16,58,-3.80
2016,12,17,16,59,-3.90
2016,12,17,17,00,-3.90
2016,12,17,17,01,-3.90
2016,12,17,17,02,-3.90
2016,12,17,17,03,-3.90
2016,12,17,17,04,-4.00
2016,12,17,17,05,-4.00
2016,12,17,17,06,-4.00
2016,12,17,17,07,-4.00
2016,12,17,17,08,-4.10
2016,12,17,17,09,-4.10
2016,12,17,17,10,-4.10
2016,12,17,17,11,-4.10
2016,12,17,17,12,-4.10
2016,12,17,17,13,-4.20
2016,12,17,17,14,-4.20
2016,12,17,17,15,-4.20
2016,12,17,17,16,-4.20
2016,12,17,17,17,-4.20
2016,12,17,17,18,-4.30
2016,12,17,17,19,-4.30